KLAWOCK HWY AT CONTROL LAKE current weather conditions

sailwx.info

Wind from 107 at 2 knots gusting 7

Air temperature 3.1° C
Visibility: greater than 1.1 NM
Dewpoint 2.9° C

Last reported at 2020-Jan-22 13:50 UTC.
Time now 2020-Jan-22 14:51 UTC

Location: N 55°42' W 132°53'.
View on Google Maps.

See reports from other nearby stations

  
Tides and Currents Weather Stations Pressure Air Temp Water Temp Dewpoint Dewpoint Depression Visibility Wind Speed Wind Dir Waves Ship Positions
date/time (UTC)wind fromknots sea level pressurealtimeterstation pressurevisibilityair tempwater tempwave heightnotes
2020-Jan-22 13:50 107 2 gusting 7 1.1 3.1
2020-Jan-22 13:40 105 2 gusting 7 1.1 3.1
2020-Jan-22 13:30 121 2 gusting 5 1.1 3.0
2020-Jan-22 13:20 167 1 gusting 5 1.1 2.9
2020-Jan-22 13:10 174 1 gusting 3 1.1 3.1
2020-Jan-22 13:00 132 2 gusting 8 1.1 3.2
2020-Jan-22 12:50 094 3 gusting 9 1.1 3.0
2020-Jan-22 12:40 136 2 gusting 8 1.1 2.7
2020-Jan-22 12:30 147 1 gusting 5 1.1 2.9
2020-Jan-22 12:20 150 2 gusting 8 1.1 2.9
2020-Jan-22 12:10 137 1 gusting 7 1.1 2.5
2020-Jan-22 12:00 180 1 gusting 3 0.5 2.3
2020-Jan-22 11:50 164 1 gusting 3 0.4 2.2
2020-Jan-22 11:40 173 1 gusting 2 0.3 2.1
2020-Jan-22 11:30 164 1 gusting 1 0.3 2.2
2020-Jan-22 11:20 0.4 2.2
2020-Jan-22 11:10 0.3 2.3
2020-Jan-22 11:00 083 1 gusting 2 0.3 2.3
2020-Jan-22 10:50 0.4 2.4
2020-Jan-22 10:40 0.6 2.4
2020-Jan-22 10:30 140 0 0.8 2.4
2020-Jan-22 10:20 0.4 2.2
2020-Jan-22 10:10 0.5 2.4
2020-Jan-22 10:00 0.5 2.3
2020-Jan-22 09:50 100 1 gusting 1 0.6 2.3
2020-Jan-22 09:40 1.1 2.5
2020-Jan-22 09:30 1.1 2.4
2020-Jan-22 09:20 0.5 2.2
2020-Jan-22 09:10 136 1 gusting 2 0.8 2.3
2020-Jan-22 09:00 0.5 2.3
2020-Jan-22 08:50 183 0 1.1 2.3
2020-Jan-22 08:40 132 1 gusting 2 1.0 2.3
2020-Jan-22 08:30 0.7 2.2
2020-Jan-22 08:20 094 1 gusting 2 0.5 2.2
2020-Jan-22 08:10 146 1 gusting 2 0.4 2.1
2020-Jan-22 08:00 0.5 2.2
2020-Jan-22 07:50 0.5 2.3
2020-Jan-22 07:40 148 0 gusting 2 0.5 2.3
2020-Jan-22 07:30 134 1 gusting 2 0.4 2.3
2020-Jan-22 07:20 141 1 gusting 3 0.3 2.2
2020-Jan-22 07:10 163 1 gusting 2 0.4 2.2
2020-Jan-22 07:00 0.5 2.0
2020-Jan-22 06:50 0.4 1.9
2020-Jan-22 06:40 0.3 1.9
2020-Jan-22 06:30 0.5 2.1
2020-Jan-22 06:20 0.9 2.0
2020-Jan-22 06:10 1.1 2.1
2020-Jan-22 06:00 1.1 2.3
2020-Jan-22 05:50 1.1 2.1
2020-Jan-22 05:40 0.6 2.1
2020-Jan-22 05:30 0.4 2.0
2020-Jan-22 05:20 106 1 gusting 2 0.4 1.9
2020-Jan-22 05:10 156 1 gusting 2 0.5 2.0
2020-Jan-22 05:00 0.7 2.1
2020-Jan-22 04:50 0.5 2.1
2020-Jan-22 04:40 0.4 1.9
2020-Jan-22 04:30 150 1 gusting 3 0.8 2.0
2020-Jan-22 04:20 099 1 gusting 2 0.7 2.3
2020-Jan-22 04:10 109 1 gusting 2 1.0 2.4
2020-Jan-22 04:00 0.8 2.2
2020-Jan-22 03:50 152 1 gusting 2 1.1 2.4
2020-Jan-22 03:40 131 1 gusting 4 1.1 2.4
2020-Jan-22 03:30 165 2 gusting 3 0.8 2.4
2020-Jan-22 03:20 123 0 gusting 4 0.8 2.3
2020-Jan-22 03:10 165 3 gusting 6 1.1 2.6
2020-Jan-22 03:00 113 2 gusting 6 1.1 2.6
2020-Jan-22 02:50 125 1 gusting 4 1.1 2.8
2020-Jan-22 02:40 129 2 gusting 4 1.1 2.8
2020-Jan-22 02:30 133 1 gusting 3 1.1 2.8
2020-Jan-22 02:20 139 0 gusting 2 1.1 2.9
2020-Jan-22 02:10 147 1 gusting 2 1.1 2.8
2020-Jan-22 02:00 167 2 gusting 3 1.1 2.8
2020-Jan-22 01:50 148 1 gusting 3 1.1 2.7
2020-Jan-22 01:40 158 0 gusting 3 1.1 2.8
2020-Jan-22 01:30 169 1 1.1 2.7
2020-Jan-22 01:20 1.1 2.7
2020-Jan-22 01:10 1.1 2.8
2020-Jan-22 01:00 150 1 gusting 2 1.1 2.7
2020-Jan-22 00:50 101 1 gusting 3 1.1 2.8
2020-Jan-22 00:40 1.1 2.5
2020-Jan-22 00:30 101 1 gusting 3 1.1 2.7
2020-Jan-22 00:20 117 2 gusting 6 1.1 2.8
2020-Jan-22 00:10 162 1 gusting 7 1.1 2.8
2020-Jan-22 00:00 149 2 gusting 7 1.1 2.8
2020-Jan-21 23:50 124 3 gusting 8 1.1 2.8
2020-Jan-21 23:40 094 3 gusting 9 1.1 2.7
2020-Jan-21 23:30 103 3 gusting 9 1.1 2.8
2020-Jan-21 23:20 139 2 gusting 7 1.1 2.8
2020-Jan-21 23:10 134 1 gusting 5 1.1 3.0
2020-Jan-21 23:00 162 1 gusting 6 1.1 3.0
2020-Jan-21 22:50 152 1 gusting 6 1.1 3.0
2020-Jan-21 22:40 159 1 gusting 3 1.1 2.8
2020-Jan-21 22:30 155 1 gusting 5 1.1 2.7
2020-Jan-21 22:20 103 2 gusting 6 1.1 2.8
2020-Jan-21 22:10 107 2 gusting 8 1.1 2.8
2020-Jan-21 22:00 128 2 gusting 5 1.1 2.9
2020-Jan-21 21:50 166 1 gusting 4 1.1 3.0
2020-Jan-21 21:40 150 2 gusting 5 1.1 3.0
2020-Jan-21 21:30 161 1 gusting 4 1.1 3.0
2020-Jan-21 21:20 128 0 1.1 3.1
2020-Jan-21 21:10 1.1 3.0
2020-Jan-21 21:00 209 0 1.1 2.9
2020-Jan-21 20:50 1.1 2.7
2020-Jan-21 20:40 312 1 gusting 2 1.1 2.4
2020-Jan-21 20:30 1.1 2.3
2020-Jan-21 20:20 1.1 2.2
2020-Jan-21 20:10 161 1 1.1 2.4
2020-Jan-21 20:00 048 0 gusting 1 1.1 2.3
2020-Jan-21 19:50 330 0 1.1 2.2
2020-Jan-21 19:40 303 0 1.1 2.0
2020-Jan-21 19:30 1.1 1.8
2020-Jan-21 19:20 318 0 gusting 1 1.1 2.0
2020-Jan-21 19:10 065 1 gusting 2 1.1 1.6
2020-Jan-21 19:00 1.1 1.5
2020-Jan-21 18:50 1.1 1.4
2020-Jan-21 18:40 027 1 gusting 2 1.1 1.5
2020-Jan-21 18:30 049 0 1.1 1.4
2020-Jan-21 18:20 050 1 gusting 2 1.1 1.3
2020-Jan-21 18:10 018 0 gusting 1 1.1 1.1
2020-Jan-21 18:00 160 0 gusting 1 1.1 1.2
2020-Jan-21 17:50 040 1 gusting 2 1.1 1.1
2020-Jan-21 17:40 1.1 1.2
2020-Jan-21 17:30 064 1 gusting 2 1.1 1.0
2020-Jan-21 17:20 1.1 0.9
2020-Jan-21 17:10 141 1 gusting 5 1.1 0.9
2020-Jan-21 17:00 020 1 gusting 2 1.1 0.4
2020-Jan-21 16:50 122 1 gusting 2 0.5 0.3
2020-Jan-21 16:40 1.1 0.9
2020-Jan-21 16:30 077 1 gusting 4 1.1 0.8
2020-Jan-21 16:20 106 1 gusting 3 1.1 0.6
2020-Jan-21 16:10 101 1 gusting 3 1.1 0.9
2020-Jan-21 16:00 087 1 gusting 3 1.1 0.6
2020-Jan-21 15:50 117 1 gusting 3 1.1 0.9
2020-Jan-21 15:40 083 1 gusting 2 0.9 0.7
2020-Jan-21 15:30 1.1 0.7
2020-Jan-21 15:20 094 1 gusting 2 1.1 0.7
2020-Jan-21 15:10 299 2 gusting 3 0.9 0.5
2020-Jan-21 15:00 1.1 0.7
2020-Jan-21 14:50 1.1 0.7
2020-Jan-21 14:40 0.8 1.0
2020-Jan-21 14:30 1.0 0.7
2020-Jan-21 14:20 044 1 gusting 1 1.1 1.4
2020-Jan-21 14:00 1.1 1.1
2020-Jan-21 13:50 079 1 gusting 2 0.8 0.7
2020-Jan-21 13:40 1.0 0.8
2020-Jan-21 13:30 1.1 0.9
2020-Jan-21 13:20 1.1 1.2
2020-Jan-21 13:10 0.6 0.7
2020-Jan-21 13:00 1.1 1.4
2020-Jan-21 12:50 005 1 gusting 1 1.1 1.4
2020-Jan-21 12:40 331 1 0.9 1.1
2020-Jan-21 12:30 1.1 1.3
2020-Jan-21 12:20 002 1 gusting 1 1.1 1.5
2020-Jan-21 12:10 010 1 1.1 1.5
2020-Jan-21 12:00 1.1 1.4
2020-Jan-21 11:50 1.1 1.5
2020-Jan-21 11:40 0.8 1.5
2020-Jan-21 11:30 0.8 1.4
2020-Jan-21 11:20 1.0 1.6
2020-Jan-21 11:10 1.1 1.9
2020-Jan-21 11:00 1.1 1.9
2020-Jan-21 10:50 1.1 1.9
2020-Jan-21 10:40 036 1 gusting 1 1.1 2.0
2020-Jan-21 10:30 1.1 2.1
2020-Jan-21 10:20 1.0 1.8
2020-Jan-21 10:10 1.1 2.1
2020-Jan-21 10:00 072 1 gusting 1 1.1 2.3
2020-Jan-21 09:50 223 1 1.1 2.3
2020-Jan-21 09:40 012 0 1.1 2.4
2020-Jan-21 09:30 1.1 2.6
2020-Jan-21 09:20 297 1 gusting 1 1.1 2.6
2020-Jan-21 09:10 1.1 2.6
2020-Jan-21 09:00 126 1 1.1 2.8
2020-Jan-21 08:50 334 1 gusting 3 1.1 2.7
2020-Jan-21 08:40 351 1 gusting 2 1.1 2.8
2020-Jan-21 08:30 357 1 gusting 3 1.1 2.7
2020-Jan-21 08:20 1.1 2.6
2020-Jan-21 08:10 1.1 2.9
2020-Jan-21 08:00 243 1 gusting 4 1.1 3.0
2020-Jan-21 07:50 062 2 gusting 8 1.1 2.9
2020-Jan-21 07:40 131 1 gusting 6 1.1 2.8
2020-Jan-21 07:30 070 1 gusting 7 1.1 2.8
2020-Jan-21 07:20 310 1 gusting 6 1.1 2.7
2020-Jan-21 07:10 020 1 gusting 6 1.1 2.7
2020-Jan-21 07:00 048 2 gusting 8 1.1 3.0
2020-Jan-21 06:50 096 3 gusting 6 1.1 2.8
2020-Jan-21 06:40 116 2 gusting 4 1.1 2.8
2020-Jan-21 06:30 287 0 1.1 2.9
2020-Jan-21 06:20 1.1 2.9
2020-Jan-21 06:10 1.1 2.7
2020-Jan-21 06:00 1.1 2.7
2020-Jan-21 05:50 131 1 gusting 6 1.1 2.7
2020-Jan-21 05:40 144 1 gusting 2 1.1 3.0
2020-Jan-21 05:30 147 2 gusting 4 1.1 2.5
2020-Jan-21 05:20 1.1 2.9
2020-Jan-21 05:10 1.1 2.7
2020-Jan-21 05:00 282 1 gusting 2 1.1 2.6
2020-Jan-21 04:50 345 1 1.1 2.7
2020-Jan-21 04:40 129 1 gusting 3 1.1 2.9
2020-Jan-21 04:30 1.1 2.7
2020-Jan-21 04:20 148 1 gusting 4 1.1 2.6
2020-Jan-21 04:10 1.1 2.7
2020-Jan-21 04:00 1.1 2.6
2020-Jan-21 03:50 1.1 2.4
2020-Jan-21 03:40 1.1 2.5
2020-Jan-21 03:30 1.1 2.3
2020-Jan-21 03:20 149 1 gusting 4 1.1 2.2
2020-Jan-21 03:10 164 1 gusting 4 1.1 2.1
2020-Jan-21 03:00 290 1 gusting 8 1.1 2.0
2020-Jan-21 02:50 0.5 1.4
2020-Jan-21 02:40 298 1 0.3 1.4
2020-Jan-21 02:30 0.5 1.6
2020-Jan-21 02:20 173 1 gusting 4 0.5 1.8
2020-Jan-21 02:10 177 1 gusting 5 0.3 1.8
2020-Jan-21 02:00 292 1 gusting 4 0.2 1.8
2020-Jan-21 01:50 289 1 gusting 2 0.2 1.7
2020-Jan-21 01:40 0.2 1.9
2020-Jan-21 01:30 231 1 0.2 2.0
2020-Jan-21 01:20 114 0 0.3 2.1
2020-Jan-21 01:10 0.4 2.2
2020-Jan-21 01:00 015 1 gusting 3 0.5 2.6
2020-Jan-21 00:50 0.5 2.1
2020-Jan-21 00:40 097 1 gusting 3 0.5 2.3
2020-Jan-21 00:30 115 1 gusting 3 0.6 2.4
2020-Jan-21 00:20 162 2 gusting 6 1.1 2.6
2020-Jan-21 00:10 137 1 gusting 6 0.6 2.9
2020-Jan-21 00:00 139 1 gusting 3 0.7 2.4
2020-Jan-20 23:50 0.5 2.3
2020-Jan-20 23:40 165 1 gusting 3 0.4 2.6
2020-Jan-20 23:30 151 1 gusting 3 0.4 2.5
2020-Jan-20 23:20 312 0 gusting 2 0.8 2.6
2020-Jan-20 23:10 1.1 2.7
2020-Jan-20 23:00 1.1 2.7
2020-Jan-20 22:50 1.1 2.6
2020-Jan-20 22:40 1.0 2.5
2020-Jan-20 22:30 0.5 2.4
2020-Jan-20 22:20 150 1 gusting 3 0.7 2.3
2020-Jan-20 22:10 126 1 gusting 5 0.6 2.2
2020-Jan-20 22:00 085 2 gusting 3 0.5 2.2
2020-Jan-20 21:50 150 1 gusting 3 1.1 2.5
2020-Jan-20 21:40 1.1 2.1
2020-Jan-20 21:30 219 1 gusting 2 0.8 2.3
2020-Jan-20 21:20 1.1 2.3
2020-Jan-20 21:10 1.1 2.2
2020-Jan-20 21:00 196 1 1.1 2.1
2020-Jan-20 20:50 186 1 gusting 1 1.1 2.0
2020-Jan-20 20:40 0.9 1.9
2020-Jan-20 20:30 1.1 2.0
2020-Jan-20 20:20 1.1 1.8
2020-Jan-20 20:10 1.1 1.7
2020-Jan-20 20:00 234 1 gusting 3 1.0 1.6
2020-Jan-20 19:50 226 1 gusting 1 1.1 1.5
2020-Jan-20 19:40 233 1 gusting 2 1.1 1.4
2020-Jan-20 19:30 1.1 1.3
2020-Jan-20 19:20 314 1 gusting 1 0.8 1.2
2020-Jan-20 19:10 022 1 gusting 3 1.0 1.0
2020-Jan-20 19:00 021 1 gusting 1 0.8 1.0
2020-Jan-20 18:50 191 0 gusting 2 1.0 0.9
2020-Jan-20 18:40 1.1 1.0
2020-Jan-20 18:30 299 1 1.1 0.9
2020-Jan-20 18:20 0.7 0.7
2020-Jan-20 18:10 278 1 gusting 2 0.5 0.7
2020-Jan-20 18:00 300 1 gusting 2 0.4 0.7
2020-Jan-20 17:50 317 1 gusting 2 0.4 0.6
2020-Jan-20 17:40 0.6 0.5
2020-Jan-20 17:30 0.6 0.5
2020-Jan-20 17:10 318 1 gusting 2 0.7 0.5
2020-Jan-20 17:00 195 0 0.6 0.5
2020-Jan-20 16:50 301 1 gusting 1 0.5 0.5
2020-Jan-20 16:40 143 1 gusting 2 0.5 0.4
2020-Jan-20 16:30 0.4 0.4
2020-Jan-20 16:20 0.3 0.5
2020-Jan-20 16:10 0.6 0.5
2020-Jan-20 16:00 0.9 0.5
2020-Jan-20 15:50 0.9 0.5
2020-Jan-20 15:40 0.5 0.7
2020-Jan-20 15:30 1.1 0.8
2020-Jan-20 15:20 1.0 0.7
2020-Jan-20 15:10 0.5 0.7
2020-Jan-20 15:00 108 1 gusting 3 0.7 0.7
2020-Jan-20 14:50 124 1 gusting 3 0.6 0.7
2020-Jan-20 14:40 146 1 gusting 4 0.7 0.8
2020-Jan-20 14:30 0.9 0.7
2020-Jan-20 14:20 146 1 gusting 3 0.7 0.9
2020-Jan-20 14:10 0.8 0.9
2020-Jan-20 14:00 156 2 gusting 3 1.1 0.9